Temperature
5 6 6 6 6 6 6 5 5 6 6 7 7 7 8 8 9 8 8 8 8 8 8 8 8 8 8 7 7 7 7 7 7 7 6 6 6 6 5 5 5 5 5 5
4 6 5 5 5 5 6 6 6 6 6 7 8 8 7 8 8 8 8 8 8 8 8 7 7 7 7 7 7 7 6 6 6 6 6 6 6 5 5 5 5 4 4 4
4 4 5 5 6 6 5 5 5 6 7 6 6 6 7 7 7 8 8 8 8 7 7 7 7 7 7 7 6 6 6 6 6 6 5 5 5 5 5 5 4 4 4 4
3 4 5 7 7 6 6 6 5 6 6 6 6 7 7 8 7 7 7 7 7 7 7 7 7 7 6 6 6 6 6 6 5 5 5 5 5 4 4 4 4 4 4 4
3 4 4 6 6 6 6 6 6 5 5 6 6 6 6 7 7 7 7 7 7 7 7 7 6 6 6 6 6 6 5 5 5 5 5 4 4 4 4 4 4 3 3 3
3 4 6 7 7 7 7 6 6 5 5 5 5 4 5 7 7 7 7 7 7 6 6 6 6 6 6 6 5 5 5 5 4 4 4 4 4 4 3 3 3 3 3 3
3 3 4 5 6 6 6 6 7 6 6 6 5 5 7 7 6 6 6 6 6 6 6 6 5 5 5 5 5 5 4 4 4 4 4 3 3 3 3 3 3 3 3 2
2 3 4 5 5 5 6 7 7 7 7 6 6 6 6 6 6 6 6 6 5 5 5 5 5 5 5 4 4 4 4 4 3 3 3 3 3 3 3 2 2 2 2 2
3 5 6 6 6 7 7 7 7 6 6 6 6 5 5 5 5 5 5 5 5 5 5 5 4 4 4 4 4 3 3 3 3 3 3 2 2 2 2 2 2 2 2 1
2 3 5 6 6 6 6 6 6 6 6 5 5 5 5 5 5 4 4 4 4 4 4 4 4 3 3 3 3 3 3 3 2 2 2 2 2 2 1 1 1 1 1 1
2 3 4 5 6 6 6 6 5 5 5 5 5 4 4 4 4 4 4 4 4 4 3 3 3 3 3 2 2 2 2 2 2 2 2 1 1 1 1 1 1 0 0 0
3 4 3 4 5 5 5 5 4 4 4 4 4 4 4 3 3 3 3 3 3 3 3 3 2 2 2 2 2 2 2 2 2 1 1 1 1 0 0 0 0 -0 -0 -1
4 5 4 4 4 4 4 4 4 3 3 3 3 3 3 3 3 3 3 2 2 2 2 2 2 2 2 1 1 1 1 1 1 1 0 0 0 -0 -0 -0 -0 -0 -1 -1
4 3 3 3 3 3 3 3 3 3 3 3 2 2 2 2 2 2 2 2 2 1 1 1 1 1 1 1 1 1 1 0 0 0 -0 -0 -1 -1 -1 -1 -1 -1 -1 -1
3 2 2 2 2 2 2 2 2 2 2 2 2 2 2 1 1 1 1 1 1 1 1 1 1 1 1 0 0 0 0 -0 -0 -1 -1 -1 -1 -1 -1 -2 -2 -2 -2 -2
2 2 1 1 1 1 1 1 1 1 1 1 1 1 1 1 1 1 0 0 -0 0 0 0 0 0 0 -0 -0 -0 -0 -1 -1 -1 -1 -1 -1 -2 -2 -2 -2 -2 -2 -2
0 0 0 0 1 0 0 0 0 0 0 0 0 0 -0 -0 -0 0 -0 -0 -0 -0 -0 -0 -0 -0 -0 -1 -1 -1 -1 -1 -1 -2 -2 -2 -2 -2 -2 -3 -3 -3 -3 -3
0 0 0 -0 -0 -0 -0 -0 -0 -0 -0 -0 -1 -1 -1 -1 -1 -1 -1 -1 -1 -1 -1 -1 -1 -1 -1 -1 -1 -2 -2 -2 -2 -2 -2 -2 -2 -3 -3 -3 -3 -3 -3 -3
-0 -0 -0 -0 -1 -1 -1 -1 -1 -1 -1 -1 -1 -1 -1 -1 -1 -1 -1 -1 -1 -1 -1 -1 -1 -1 -2 -2 -2 -2 -2 -2 -2 -3 -3 -3 -3 -3 -3 -3 -4 -4 -4 -4
-1 -1 -1 -1 -1 -1 -2 -2 -1 -1 -2 -2 -2 -2 -2 -2 -2 -2 -2 -2 -2 -2 -2 -2 -2 -2 -2 -2 -2 -3 -3 -3 -3 -3 -3 -3 -3 -3 -4 -4 -4 -4 -4 -4
-1 -1 -2 -2 -2 -2 -2 -2 -2 -2 -2 -2 -2 -2 -2 -2 -2 -2 -2 -2 -2 -2 -2 -3 -3 -3 -3 -3 -3 -3 -3 -3 -3 -4 -4 -4 -4 -4 -4 -4 -4 -4 -4 -5
-2 -2 -2 -2 -2 -2 -2 -2 -2 -2 -2 -3 -2 -2 -3 -2 -2 -3 -3 -3 -3 -3 -3 -3 -3 -3 -3 -3 -3 -3 -4 -4 -4 -4 -4 -4 -4 -4 -4 -4 -4 -4 -5 -5
-2 -2 -2 -2 -2 -3 -3 -3 -3 -3 -3 -3 -3 -3 -3 -3 -3 -3 -3 -3 -3 -3 -4 -4 -4 -4 -4 -4 -4 -4 -4 -4 -4 -4 -4 -4 -5 -5 -5 -5 -5 -5 -5 -5
-3 -3 -3 -3 -3 -3 -3 -3 -3 -3 -3 -3 -3 -4 -4 -4 -4 -4 -4 -4 -4 -4 -4 -4 -4 -4 -4 -4 -4 -4 -4 -4 -4 -4 -5 -5 -5 -5 -5 -5 -5 -5 -5 -5
-3 -3 -3 -3 -4 -4 -4 -4 -4 -4 -4 -4 -4 -4 -4 -4 -4 -4 -4 -4 -4 -5 -5 -5 -5 -5 -5 -5 -5 -5 -5 -5 -5 -5 -5 -5 -5 -5 -5 -5 -5 -5 -5 -5
-4 -4 -4 -4 -4 -4 -4 -4 -4 -4 -4 -4 -4 -5 -5 -5 -5 -5 -5 -5 -5 -5 -5 -5 -5 -5 -5 -5 -5 -5 -5 -5 -5 -5 -5 -5 -5 -5 -5 -5 -5 -5 -5 -6
-4 -4 -4 -4 -4 -5 -5 -5 -5 -5 -5 -5 -5 -5 -5 -6 -6 -6 -6 -6 -6 -6 -6 -6 -6 -6 -6 -6 -6 -6 -6 -5 -5 -5 -5 -5 -5 -5 -5 -5 -6 -6 -6 -6
Wind_Speed
8 8 6 8 9 7 9 9 9 9 8 11 9 7 5 4 3 3 3 3 5 5 5 4 4 4 4 5 4 4 5 5 6 5 4 4 4 4 4 4 4 4 4 4
6 6 6 9 11 10 10 9 10 10 11 10 7 3 3 3 4 4 4 4 5 5 5 5 6 5 5 5 5 4 5 6 5 4 4 4 4 4 4 4 4 4 4 5
5 6 6 8 9 9 6 7 7 10 10 6 3 3 4 4 4 4 5 4 5 5 6 6 6 6 6 6 5 5 5 5 5 5 5 5 4 4 4 5 4 4 5 5
3 3 6 7 2 6 6 5 7 6 5 4 4 3 2 3 3 4 4 4 4 4 5 5 4 5 4 4 4 5 5 5 5 5 5 5 4 5 5 4 4 5 5 5
2 4 9 8 4 3 5 4 5 6 5 3 2 1 3 2 3 4 5 4 4 5 5 4 4 4 3 3 4 5 5 6 6 6 6 5 5 6 5 4 5 5 4 5
4 4 7 6 2 1 2 4 4 3 4 2 2 0 5 4 3 3 3 3 3 3 3 3 4 3 4 4 4 6 6 6 5 5 6 6 6 6 4 4 5 5 5 5
7 7 9 7 2 3 3 5 3 3 4 4 5 6 5 4 3 3 3 3 2 2 3 4 4 3 4 4 6 6 5 5 5 5 6 6 5 4 4 4 4 4 5 5
6 7 9 3 4 5 6 3 2 3 4 4 5 5 5 4 4 4 3 3 2 3 4 3 3 4 5 6 6 4 4 4 5 5 5 4 5 4 4 4 4 4 4 5
9 9 4 4 7 6 3 4 4 4 5 5 5 5 5 5 5 4 4 4 3 3 4 3 3 4 6 6 4 4 4 5 5 5 4 4 5 5 4 4 4 4 4 5
6 9 7 6 5 5 5 6 6 6 6 5 6 7 6 6 5 5 5 5 3 3 4 5 4 5 6 5 4 4 5 5 4 4 5 4 4 4 4 5 5 5 5 5
8 8 7 6 5 6 7 6 6 6 6 6 7 7 7 7 6 6 5 4 4 4 5 6 5 5 5 5 4 5 5 5 4 5 5 4 4 4 5 6 6 6 6 5
9 7 6 8 7 6 7 7 7 6 7 7 7 7 7 7 6 6 6 4 4 5 6 6 5 6 5 5 5 5 5 5 4 4 4 4 4 4 6 7 8 10 9 8
10 9 9 9 8 7 7 8 7 7 7 7 6 6 7 7 6 5 5 5 6 7 6 6 6 6 6 5 5 6 6 5 4 4 4 4 4 4 4 4 5 7 9 10
8 6 8 7 8 8 7 6 6 6 5 5 5 5 5 6 5 5 6 6 6 6 6 6 6 7 6 5 5 6 6 6 5 5 5 5 5 5 4 4 4 4 5 8
8 6 8 7 6 6 5 4 4 5 5 5 5 5 5 5 6 6 6 5 4 5 6 5 6 7 5 4 5 5 5 4 4 4 4 4 4 4 4 5 5 5 4 5
6 6 5 5 6 5 4 4 5 7 6 6 5 5 5 5 6 6 5 4 4 6 6 6 7 7 5 4 4 4 5 7 5 4 4 4 4 4 5 5 5 5 5 5
5 6 6 6 6 6 6 6 6 6 6 6 7 6 5 5 5 5 6 5 5 6 6 6 7 5 4 4 4 4 4 5 6 5 4 4 4 5 5 5 5 5 6 6
7 8 7 7 7 7 6 5 5 5 6 6 5 4 5 5 6 6 6 5 4 4 5 5 5 4 4 4 4 3 4 4 4 4 4 4 4 5 5 5 6 6 5 6
5 6 6 6 6 5 5 5 5 5 5 4 4 5 5 6 6 5 4 4 4 6 5 4 4 3 4 4 4 3 3 4 4 4 4 6 5 4 5 5 5 6 5 5
4 4 4 4 4 3 4 4 4 4 4 4 4 4 5 5 5 4 4 4 5 5 4 4 4 4 4 4 4 3 3 4 4 4 4 4 4 5 5 5 5 5 5 6
4 4 3 3 4 4 4 4 3 4 5 4 4 5 6 6 5 4 4 5 5 4 4 5 4 4 4 4 4 3 3 4 4 4 4 4 4 5 5 5 5 5 5 5
3 3 3 3 4 5 5 4 3 4 4 4 4 4 4 5 5 4 4 5 5 6 4 3 3 5 5 5 3 3 4 4 4 4 4 4 4 5 5 6 6 6 6 5
3 3 4 4 4 5 5 4 4 4 5 5 5 5 5 5 4 4 5 4 3 6 4 4 6 8 8 4 3 3 4 4 4 4 5 5 5 5 5 6 6 6 5 5
3 4 4 4 4 4 5 6 5 5 5 5 5 6 5 5 5 4 5 7 8 8 5 6 9 9 7 3 3 4 4 4 5 5 5 5 5 5 5 5 5 5 5 6
4 4 4 4 5 5 6 6 6 5 5 5 5 5 4 4 5 5 4 5 7 8 5 6 8 8 5 3 4 4 4 5 5 5 5 5 5 5 5 5 5 5 5 5
4 5 5 5 5 5 5 4 4 5 5 6 6 5 4 4 4 5 4 5 6 7 5 4 4 5 4 4 4 4 5 5 6 5 5 5 5 5 5 5 6 5 5 5
5 4 4 5 5 4 4 4 5 5 5 5 6 6 5 5 5 5 5 4 5 4 4 4 4 4 4 4 4 4 4 4 5 5 4 4 4 5 5 5 5 4 4 4
Wind_Direction
256 265 253 250 253 231 213 212 223 246 245 264 266 248 242 238 226 213 215 212 207 209 212 212 212 215 213 214 210 198 196 207 217 216 209 208 212 217 218 218 223 223 225 231
282 273 271 264 255 240 232 228 237 256 268 263 270 253 240 236 214 214 226 225 221 213 210 213 213 215 214 217 215 200 204 216 219 209 207 212 218 219 221 226 229 225 228 229
275 305 322 275 242 216 214 214 205 230 247 272 273 242 236 234 220 228 235 231 220 216 215 217 217 211 211 217 209 201 211 218 216 211 215 222 220 217 226 229 228 233 236 231
276 344 253 251 241 195 201 236 222 233 259 260 244 245 240 218 214 237 240 234 232 226 225 225 218 214 212 208 203 207 217 224 221 213 218 222 219 225 230 226 228 234 238 236
212 260 276 289 267 197 195 261 235 232 256 279 298 15 316 265 231 230 232 232 233 228 223 220 216 209 198 210 210 215 226 229 225 216 218 221 225 232 229 225 233 237 238 235
194 227 250 256 271 245 119 281 267 206 229 242 106 308 271 270 257 260 259 248 241 233 217 219 225 199 194 216 219 228 230 232 228 219 218 224 229 232 228 225 233 237 243 240
209 232 261 260 252 107 176 253 277 209 219 205 200 225 246 256 254 254 259 262 249 229 229 234 222 197 217 228 232 235 233 232 230 223 223 226 228 229 230 230 233 236 245 250
190 217 250 228 141 182 224 262 264 250 234 230 238 250 255 252 253 258 264 265 251 237 251 248 216 202 228 244 246 238 230 234 237 234 231 227 224 232 228 220 229 242 250 263
200 221 248 197 208 227 227 248 257 252 251 241 247 255 257 253 253 255 253 253 242 232 253 263 234 211 229 247 247 237 230 235 241 240 237 228 221 225 229 221 225 239 241 254
245 261 264 259 252 259 249 250 260 258 252 245 251 258 262 261 257 253 251 250 242 235 248 260 253 237 237 246 239 230 234 238 237 236 241 235 226 218 219 224 229 235 239 248
253 273 292 276 260 262 268 265 269 266 258 250 249 256 255 256 252 248 250 248 237 234 243 251 253 251 249 239 227 229 236 237 235 232 233 237 234 227 225 227 221 224 233 234
252 253 254 270 274 273 270 267 262 258 264 258 242 248 251 252 249 247 249 247 248 247 248 253 254 257 256 238 223 224 237 238 236 233 232 231 238 261 251 243 250 246 244 242
254 265 263 272 273 268 263 264 262 259 260 264 259 248 250 254 250 245 247 246 246 249 251 254 256 259 258 244 231 228 234 238 237 233 231 230 229 235 264 281 269 260 257 259
265 275 279 275 274 273 267 264 268 271 266 257 258 256 253 254 257 251 251 251 250 252 256 256 258 262 259 244 236 237 237 238 235 232 230 229 229 231 234 246 269 276 271 268
273 261 259 272 278 280 279 276 279 279 279 276 262 257 253 252 256 259 262 263 259 256 257 257 260 267 262 245 239 240 239 238 233 232 231 231 230 232 236 238 249 263 271 274
280 276 266 271 278 284 288 279 268 269 273 277 274 267 256 250 255 262 263 253 250 258 260 261 264 268 263 252 248 249 245 243 238 232 231 232 230 232 235 238 246 252 256 258
267 276 281 289 286 283 277 271 265 266 272 272 270 271 268 266 270 271 269 260 250 255 259 260 267 275 267 253 244 250 250 249 243 239 231 230 231 233 235 237 244 251 254 253
247 253 258 261 265 271 278 280 276 275 271 271 275 275 271 266 265 268 272 275 276 279 273 265 265 271 268 259 251 249 243 243 240 237 237 233 235 231 233 239 245 252 260 261
273 272 273 271 266 264 269 274 277 276 277 278 274 272 273 271 271 274 276 272 271 279 285 277 277 274 271 268 262 244 239 242 244 244 239 246 248 236 237 242 247 249 254 257
297 299 298 300 299 286 280 283 286 290 288 282 280 282 285 284 283 283 279 271 263 261 271 282 285 276 270 267 263 242 238 240 242 244 240 236 239 244 243 246 249 251 252 254
305 309 312 312 312 307 295 291 294 297 300 293 277 275 279 285 283 275 273 284 287 276 274 279 275 268 266 265 263 248 244 243 241 240 242 244 247 247 247 249 252 254 255 257
300 304 307 308 309 309 308 307 303 300 303 301 294 286 286 290 290 283 264 261 276 288 290 275 271 273 277 277 254 247 245 243 244 242 243 245 248 252 253 252 253 254 253 254
289 291 298 301 298 298 307 308 301 295 293 292 291 287 281 277 274 275 288 280 274 287 291 273 279 284 288 281 255 251 251 252 252 250 249 247 248 252 256 256 254 253 253 254
284 288 292 295 301 304 304 302 300 294 288 288 285 281 279 285 287 266 261 284 293 295 288 283 291 293 296 274 255 253 254 255 255 254 252 251 250 252 254 255 255 255 254 253
281 284 286 291 293 287 284 291 299 299 299 298 294 288 279 266 269 284 282 279 286 295 289 288 294 299 294 266 258 256 256 256 258 256 249 251 251 252 254 254 255 256 254 252
276 277 275 270 267 273 280 284 286 290 295 298 300 295 290 285 279 282 284 281 281 292 291 283 284 288 278 266 260 258 260 268 273 267 256 255 254 255 256 256 254 254 255 254
283 283 284 286 281 273 273 274 277 282 283 286 294 297 295 294 292 291 289 289 291 290 287 283 279 275 273 270 267 265 264 263 262 260 258 256 255 255 255 253 254 254 253 252
Height
1514 1510 1510 1507 1505 1504 1506 1505 1506 1496 1494 1485 1482 1482 1481 1481 1481 1481 1481 1481 1482 1483 1484 1485 1486 1487 1488 1489 1490 1490 1490 1491 1491 1491 1491 1491 1491 1491 1491 1492 1492 1492 1491 1491
1513 1507 1507 1504 1499 1499 1498 1497 1496 1492 1489 1480 1479 1479 1479 1479 1479 1479 1479 1479 1480 1480 1481 1482 1483 1484 1484 1485 1486 1486 1486 1486 1487 1487 1487 1487 1487 1487 1487 1487 1487 1487 1487 1486
1515 1509 1505 1500 1490 1490 1491 1489 1489 1488 1483 1478 1478 1477 1477 1477 1477 1477 1477 1477 1477 1478 1478 1479 1480 1481 1481 1481 1482 1482 1482 1482 1482 1482 1482 1482 1482 1482 1482 1482 1483 1482 1482 1481
1517 1512 1507 1488 1482 1482 1484 1484 1483 1480 1478 1477 1476 1476 1476 1475 1475 1475 1475 1475 1475 1476 1476 1476 1477 1477 1477 1478 1478 1477 1477 1478 1478 1478 1478 1478 1478 1478 1478 1478 1477 1477 1477 1477
1516 1513 1501 1486 1480 1480 1482 1481 1478 1477 1476 1475 1474 1475 1474 1474 1474 1473 1473 1473 1473 1473 1473 1473 1473 1473 1474 1474 1473 1473 1473 1473 1473 1473 1473 1473 1473 1473 1473 1473 1472 1472 1472 1471
1513 1508 1496 1482 1478 1477 1479 1481 1475 1474 1474 1474 1474 1477 1474 1472 1471 1471 1471 1471 1470 1470 1470 1470 1470 1470 1470 1469 1469 1469 1469 1469 1469 1469 1469 1468 1468 1468 1468 1467 1467 1467 1467 1466
1509 1505 1492 1480 1477 1477 1484 1479 1473 1472 1472 1472 1472 1472 1470 1469 1469 1469 1468 1468 1467 1467 1466 1466 1466 1466 1465 1465 1465 1465 1465 1464 1464 1464 1464 1464 1463 1463 1463 1462 1462 1462 1462 1461
1503 1502 1491 1476 1476 1478 1475 1472 1471 1470 1470 1470 1468 1468 1467 1466 1466 1465 1465 1464 1464 1463 1462 1462 1462 1461 1461 1460 1460 1460 1459 1459 1459 1459 1459 1458 1458 1458 1458 1457 1457 1456 1456 1456
1488 1482 1474 1472 1471 1470 1470 1470 1469 1468 1467 1467 1465 1464 1463 1463 1462 1461 1461 1460 1460 1459 1458 1458 1458 1457 1456 1456 1456 1455 1454 1454 1454 1454 1454 1453 1453 1453 1453 1452 1452 1451 1451 1450
1480 1473 1470 1469 1468 1468 1468 1467 1466 1465 1464 1463 1461 1460 1459 1459 1458 1457 1457 1456 1455 1454 1454 1453 1453 1452 1452 1452 1451 1450 1449 1449 1449 1448 1448 1448 1448 1448 1447 1447 1446 1446 1445 1445
1475 1470 1467 1465 1465 1465 1464 1463 1461 1460 1459 1458 1457 1455 1455 1454 1453 1452 1452 1451 1450 1450 1449 1448 1448 1447 1447 1446 1446 1445 1444 1444 1443 1443 1443 1442 1442 1442 1442 1442 1441 1441 1440 1440
1469 1465 1465 1462 1461 1460 1459 1457 1456 1455 1453 1452 1451 1450 1449 1448 1448 1447 1446 1446 1445 1444 1443 1443 1442 1441 1441 1441 1440 1439 1438 1438 1437 1437 1437 1437 1436 1436 1436 1436 1435 1435 1435 1434
1462 1460 1459 1457 1456 1454 1453 1452 1450 1449 1448 1446 1445 1444 1443 1442 1442 1441 1441 1440 1439 1438 1437 1437 1436 1436 1436 1435 1434 1433 1433 1432 1432 1431 1431 1431 1431 1430 1430 1430 1430 1429 1429 1428
1457 1456 1453 1451 1450 1448 1447 1446 1445 1443 1442 1440 1439 1438 1438 1437 1436 1435 1435 1434 1433 1432 1432 1431 1431 1430 1430 1429 1428 1428 1427 1426 1426 1425 1425 1425 1425 1424 1424 1423 1423 1422 1423 1423
1451 1450 1448 1446 1444 1443 1442 1440 1439 1437 1436 1435 1434 1433 1432 1431 1430 1429 1429 1429 1428 1427 1426 1426 1425 1424 1424 1424 1423 1422 1421 1421 1420 1420 1419 1419 1419 1419 1418 1418 1417 1416 1416 1416
1446 1444 1443 1441 1439 1438 1436 1435 1434 1432 1431 1430 1428 1427 1427 1426 1425 1424 1424 1423 1422 1422 1421 1420 1420 1419 1419 1418 1417 1416 1416 1415 1414 1414 1413 1413 1413 1413 1412 1412 1411 1410 1410 1410
1441 1439 1437 1436 1434 1433 1432 1431 1429 1428 1427 1425 1424 1423 1422 1421 1420 1419 1419 1418 1417 1417 1416 1416 1415 1414 1413 1413 1412 1411 1410 1409 1409 1408 1408 1408 1407 1407 1406 1406 1405 1404 1404 1404
1437 1435 1434 1432 1430 1429 1428 1427 1425 1424 1423 1421 1420 1419 1418 1417 1416 1415 1414 1413 1412 1412 1411 1411 1410 1409 1408 1408 1407 1406 1405 1404 1403 1403 1402 1402 1402 1401 1401 1400 1399 1399 1398 1398
1432 1431 1429 1428 1427 1426 1424 1423 1422 1421 1419 1418 1416 1415 1414 1413 1412 1411 1410 1409 1407 1407 1406 1406 1405 1404 1403 1403 1402 1401 1400 1399 1398 1398 1397 1397 1396 1396 1395 1395 1394 1393 1392 1392
1429 1428 1426 1425 1424 1423 1421 1420 1419 1417 1415 1414 1413 1411 1410 1409 1408 1407 1406 1404 1404 1403 1402 1401 1400 1400 1399 1398 1397 1396 1395 1394 1393 1392 1392 1391 1391 1390 1390 1389 1388 1388 1387 1386
1426 1425 1424 1423 1421 1420 1419 1417 1415 1414 1412 1411 1409 1408 1406 1405 1404 1403 1401 1400 1400 1399 1398 1397 1396 1395 1394 1394 1393 1391 1390 1389 1388 1387 1387 1386 1386 1385 1384 1384 1383 1382 1382 1381
1424 1423 1422 1421 1419 1417 1416 1414 1413 1411 1409 1408 1406 1405 1403 1402 1401 1399 1398 1397 1396 1395 1394 1392 1392 1391 1390 1389 1388 1387 1385 1384 1383 1383 1382 1381 1381 1380 1379 1378 1378 1377 1376 1376
1422 1421 1420 1419 1417 1415 1413 1412 1410 1409 1407 1405 1403 1402 1400 1398 1397 1395 1393 1393 1392 1390 1389 1388 1387 1386 1385 1384 1383 1382 1381 1380 1379 1378 1377 1376 1375 1375 1374 1373 1372 1372 1371 1370
1420 1419 1417 1416 1414 1413 1411 1409 1407 1406 1404 1402 1400 1398 1396 1394 1392 1391 1390 1388 1387 1386 1384 1383 1382 1381 1380 1379 1378 1377 1376 1375 1374 1373 1372 1371 1370 1369 1369 1368 1367 1366 1366 1365
1417 1415 1414 1412 1411 1409 1407 1405 1404 1402 1400 1398 1396 1394 1393 1391 1389 1387 1385 1384 1382 1381 1379 1378 1377 1376 1375 1374 1373 1372 1371 1370 1369 1368 1367 1366 1365 1364 1364 1363 1362 1361 1361 1360
1413 1412 1410 1409 1407 1405 1404 1402 1399 1397 1396 1394 1392 1390 1388 1386 1384 1382 1381 1379 1377 1376 1374 1373 1372 1371 1370 1369 1368 1367 1366 1365 1364 1363 1362 1361 1360 1359 1359 1358 1357 1356 1356 1355
1409 1407 1406 1404 1402 1401 1399 1397 1395 1393 1391 1389 1387 1385 1384 1382 1380 1378 1376 1374 1373 1371 1370 1368 1367 1366 1365 1363 1362 1361 1360 1359 1358 1358 1357 1356 1355 1354 1354 1353 1352 1351 1351 1350